DW6479 Weather Reports


Display with metric or nautical units.
time (UTC)temp
F
wind
direction
speed
MPH
gust
MPH
rain 1hr
in
rain 24hr
in
rain mn
in
humidity
%
barometer
mb
20260509224003 66 112 8.0 9.0 0.00 0.07 0.07 61 1026.3
20260509223503 66 112 8.0 13.0 0.00 0.07 0.07 61 1026.3
20260509223003 66 93 8.0 13.0 0.00 0.07 0.07 62 1026.3
20260509222503 65 72 8.0 13.0 0.00 0.07 0.07 62 1026.4
20260509222004 65 69 6.0 9.0 0.00 0.07 0.07 62 1026.2
20260509221003 65 81 7.0 11.0 0.00 0.07 0.07 62 1026.2
20260509220503 64 121 8.0 11.0 0.00 0.07 0.07 63 1026.1
20260509220003 64 163 7.0 11.0 0.00 0.07 0.07 63 1026.0
20260509215503 64 303 5.0 11.0 0.00 0.07 0.07 64 1026.1
20260509215003 63 54 4.0 7.0 0.00 0.07 0.07 70 1025.9
20260509214503 62 111 4.0 4.0 0.00 0.07 0.07 70 1025.9
20260509214003 62 107 3.0 4.0 0.00 0.07 0.07 70 1025.7
20260509213503 61 92 3.0 4.0 0.00 0.07 0.07 71 1025.7
20260509213003 61 86 3.0 4.0 0.00 0.07 0.07 71 1025.8
20260509212503 60 90 2.0 4.0 0.00 0.07 0.07 71 1025.9
20260509212003 60 90 2.0 4.0 0.00 0.07 0.07 71 1025.8
20260509211503 60 90 2.0 3.0 0.00 0.07 0.07 71 1025.7
20260509211003 60 90 3.0 4.0 0.00 0.07 0.07 71 1025.4
20260509210503 59 90 4.0 5.0 0.00 0.07 0.07 71 1025.4
20260509205503 59 90 4.0 6.0 0.00 0.07 0.07 71 1025.2
20260509205003 59 90 5.0 7.0 0.00 0.07 0.07 71 1025.1
20260509204503 59 90 5.0 7.0 0.00 0.07 0.07 71 1024.9
20260509204004 59 90 5.0 7.0 0.00 0.07 0.07 71 1025.0
20260509203503 59 90 5.0 6.0 0.00 0.07 0.07 71 1025.1
20260509203003 59 84 4.0 7.0 0.00 0.07 0.07 71 1024.8
20260509202503 59 73 4.0 7.0 0.00 0.07 0.07 71 1024.8
20260509202003 59 68 4.0 6.0 0.00 0.07 0.07 71 1024.9
20260509201503 59 69 4.0 6.0 0.00 0.07 0.07 71 1024.7
20260509201003 59 81 4.0 6.0 0.00 0.07 0.07 71 1024.5
20260509200503 59 90 4.0 6.0 0.00 0.07 0.07 71 1024.3
20260509200004 59 90 4.0 6.0 0.00 0.07 0.07 71 1024.4
20260509195503 59 90 3.0 4.0 0.00 0.07 0.07 71 1024.5
20260509194503 59 90 3.0 4.0 0.00 0.07 0.07 71 1024.6
20260509194003 59 85 2.0 3.0 0.00 0.07 0.07 71 1024.6
20260509193502 59 84 2.0 3.0 0.00 0.07 0.07 71 1024.4
20260509193003 59 90 2.0 3.0 0.00 0.07 0.07 71 1024.6
20260509192502 59 90 2.0 3.0 0.00 0.07 0.07 71 1024.5
20260509192004 59 108 2.0 3.0 0.00 0.07 0.07 71 1024.4
20260509191503 59 145 3.0 4.0 0.00 0.07 0.07 71 1024.3
20260509191003 59 157 3.0 4.0 0.00 0.07 0.07 71 1024.4
20260509190503 59 149 3.0 4.0 0.00 0.07 0.07 72 1024.1
20260509190003 59 137 3.0 4.0 0.00 0.07 0.07 72 1024.0
20260509185503 59 135 3.0 4.0 0.00 0.07 0.07 72 1023.9
20260509185003 59 135 2.0 4.0 0.00 0.07 0.07 73 1023.9
20260509184503 59 135 1.0 3.0 0.00 0.07 0.07 73 1024.0
20260509183503 59 135 2.0 3.0 0.00 0.07 0.07 73 1023.8
20260509183003 59 135 3.0 3.0 0.00 0.07 0.07 73 1024.1
20260509182503 59 135 2.0 3.0 0.00 0.07 0.07 72 1023.9
20260509182003 59 135 2.0 3.0 0.00 0.07 0.07 72 1023.7
20260509181503 60 135 2.0 3.0 0.00 0.07 0.07 72 1023.8
20260509180503 59 145 3.0 4.0 0.00 0.07 0.07 73 1023.9
20260509180003 59 179 4.0 4.0 0.00 0.07 0.07 73 1023.8
20260509175503 59 203 3.0 4.0 0.00 0.07 0.07 74 1023.9
20260509175003 59 200 2.0 4.0 0.00 0.07 0.07 74 1023.8
20260509174503 59 187 2.0 4.0 0.00 0.07 0.07 74 1023.8
20260509174003 59 181 2.0 4.0 0.00 0.07 0.07 75 1023.9
20260509173503 59 181 1.0 3.0 0.00 0.07 0.07 75 1024.0
20260509172503 59 181 2.0 3.0 0.00 0.07 0.07 75 1024.0
20260509172003 58 181 2.0 3.0 0.00 0.07 0.07 75 1023.8
20260509171503 58 181 2.0 2.0 0.00 0.07 0.07 75 1024.0
20260509171003 58 182 1.0 3.0 0.00 0.07 0.07 75 1024.0
20260509170503 58 181 2.0 3.0 0.00 0.07 0.07 75 1023.9
20260509170003 58 181 2.0 3.0 0.00 0.07 0.07 75 1024.0
20260509165503 58 181 2.0 3.0 0.00 0.07 0.07 75 1024.0
20260509165003 58 181 2.0 3.0 0.00 0.07 0.07 76 1023.8
20260509164503 58 165 3.0 6.0 0.00 0.07 0.07 76 1024.0
20260509163503 58 23 3.0 6.0 0.00 0.07 0.07 77 1023.9
20260509163004 57 23 2.0 4.0 0.07 0.07 0.07 77 1024.0
20260509162503 57 22 4.0 4.0 0.07 0.07 0.07 78 1024.1
20260509162003 57 23 4.0 4.0 0.07 0.07 0.07 78 1023.9
20260509161503 57 23 2.0 4.0 0.07 0.07 0.07 78 1023.9
20260509161003 57 23 1.0 4.0 0.07 0.07 0.07 79 1023.9
20260509160503 57 23 1.0 4.0 0.07 0.07 0.07 79 1023.8
20260509160004 57 23 1.0 1.0 0.07 0.07 0.07 79 1024.0
20260509155503 57 23 1.0 1.0 0.07 0.07 0.07 79 1024.0
20260509155004 57 23 1.0 1.0 0.07 0.07 0.07 79 1024.0
20260509154503 57 23 0.0 1.0 0.07 0.07 0.07 79 1023.9
20260509154003 57 319 0.0 5.0 0.07 0.07 0.07 79 1024.0
20260509153009 65 320 4.0 6.0 0.00 0.00 0.00 80 1020.8
20260509152503 65 320 4.0 6.0 0.00 0.00 0.00 80 1020.8
20260509152003 65 320 4.0 6.0 0.00 0.00 0.00 80 1020.8
20260509151503 65 320 4.0 6.0 0.00 0.00 0.00 80 1020.8
20260509150504 65 320 4.0 6.0 0.00 0.00 0.00 80 1020.8
20260509150004 65 320 4.0 6.0 0.00 0.00 0.00 80 1020.8
20260509145004 65 320 4.0 6.0 0.00 0.00 0.00 80 1020.8
20260509144503 65 320 4.0 6.0 0.00 0.00 0.00 80 1020.8
20260509144003 65 320 4.0 6.0 0.00 0.00 0.00 80 1020.8
20260509143503 65 320 4.0 6.0 0.00 0.00 0.00 80 1020.8
20260509143004 65 320 4.0 6.0 0.00 0.00 0.00 80 1020.8
20260509142503 65 320 4.0 6.0 0.00 0.00 0.00 80 1020.8
20260509142003 65 320 4.0 6.0 0.00 0.00 0.00 80 1020.8
20260509141503 65 320 4.0 6.0 0.00 0.00 0.00 80 1020.8
20260509141003 65 320 4.0 6.0 0.00 0.00 0.00 80 1020.8
20260509140005 65 320 4.0 6.0 0.00 0.00 0.00 80 1020.8
20260509134503 65 320 4.0 6.0 0.00 0.00 0.00 80 1020.8
20260509134003 65 320 4.0 6.0 0.00 0.00 0.00 80 1020.8
20260509133004 65 320 4.0 6.0 0.00 0.00 0.00 80 1020.8
20260509132504 65 320 4.0 6.0 0.00 0.00 0.00 80 1020.8
20260509132003 65 320 4.0 6.0 0.00 0.00 0.00 80 1020.8
20260509131503 65 320 4.0 6.0 0.00 0.00 0.00 80 1020.8
20260509131003 65 320 4.0 6.0 0.00 0.00 0.00 80 1020.8
20260509130003 65 320 4.0 6.0 0.00 0.00 0.00 80 1020.8
20260509125503 65 320 4.0 6.0 0.00 0.00 0.00 80 1020.8
20260509125004 65 320 4.0 6.0 0.00 0.00 0.00 80 1020.8
20260509124503 65 320 4.0 6.0 0.00 0.00 0.00 80 1020.8
20260509124003 65 320 4.0 6.0 0.00 0.00 0.00 80 1020.8
20260509123503 65 320 4.0 6.0 0.00 0.00 0.00 80 1020.8
20260509123004 65 320 4.0 6.0 0.00 0.00 0.00 80 1020.8
20260509122503 65 320 4.0 6.0 0.00 0.00 0.00 80 1020.8
20260509121503 65 320 4.0 6.0 0.00 0.00 0.00 80 1020.8
20260509121004 65 320 4.0 6.0 0.00 0.00 0.00 80 1020.8
20260509115003 65 320 4.0 6.0 0.00 0.00 0.00 80 1020.8
20260509114503 65 320 4.0 6.0 0.00 0.00 0.00 80 1020.8
20260509114010 65 320 4.0 6.0 0.00 0.00 0.00 80 1020.8
20260509113503 65 320 4.0 6.0 0.00 0.00 0.00 80 1020.8
20260509113003 65 320 4.0 6.0 0.00 0.00 0.00 80 1020.8
20260509112503 65 320 4.0 6.0 0.00 0.00 0.00 80 1020.8
20260509111503 65 320 4.0 6.0 0.00 0.00 0.00 80 1020.8
20260509111004 65 320 4.0 6.0 0.00 0.00 0.00 80 1020.8
20260509110504 65 320 4.0 6.0 0.00 0.00 0.00 80 1020.8
20260509110010 65 320 4.0 6.0 0.00 0.00 0.00 80 1020.8
20260509105504 65 320 4.0 6.0 0.00 0.00 0.00 80 1020.8
20260509105004 65 320 4.0 6.0 0.00 0.00 0.00 80 1020.8
20260509104503 65 320 4.0 6.0 0.00 0.00 0.00 80 1020.8
20260509104003 65 320 4.0 6.0 0.00 0.00 0.00 80 1020.8
20260509103503 65 320 4.0 6.0 0.00 0.00 0.00 80 1020.8
20260509103004 65 320 4.0 6.0 0.00 0.00 0.00 80 1020.8
20260509102503 65 320 4.0 6.0 0.00 0.00 0.00 80 1020.8
20260509102004 65 320 4.0 6.0 0.00 0.00 0.00 80 1020.8
20260509101503 65 320 4.0 6.0 0.00 0.00 0.00 80 1020.8
20260509101003 65 320 4.0 6.0 0.00 0.00 0.00 80 1020.8
20260509100503 65 320 4.0 6.0 0.00 0.00 0.00 80 1020.8
20260509100004 65 320 4.0 6.0 0.00 0.00 0.00 80 1020.8
20260509095003 65 320 4.0 6.0 0.00 0.00 0.00 80 1020.8
20260509094503 65 320 4.0 6.0 0.00 0.00 0.00 80 1020.8
20260509094004 65 320 4.0 6.0 0.00 0.00 0.00 80 1020.8
20260509093503 65 320 4.0 6.0 0.00 0.00 0.00 80 1020.8
20260509093003 65 320 4.0 6.0 0.00 0.00 0.00 80 1020.8
20260509092503 65 320 4.0 6.0 0.00 0.00 0.00 80 1020.8
20260509092003 65 320 4.0 6.0 0.00 0.00 0.00 80 1020.8
20260509091503 65 320 4.0 6.0 0.00 0.00 0.00 80 1020.8
20260509091003 65 320 4.0 6.0 0.00 0.00 0.00 80 1020.8
20260509090504 65 320 4.0 6.0 0.00 0.00 0.00 80 1020.8
20260509090004 65 320 4.0 6.0 0.00 0.00 0.00 80 1020.8
20260509085503 65 320 4.0 6.0 0.00 0.00 0.00 80 1020.8
20260509085003 65 320 4.0 6.0 0.00 0.00 0.00 80 1020.8
20260509084004 65 320 4.0 6.0 0.00 0.00 0.00 80 1020.8
20260509083503 65 320 4.0 6.0 0.00 0.00 0.00 80 1020.8
20260509083010 65 320 4.0 6.0 0.00 0.00 0.00 80 1020.8
20260509082503 65 320 4.0 6.0 0.00 0.00 0.00 80 1020.8
20260509082003 65 320 4.0 6.0 0.00 0.00 0.00 80 1020.8
20260509081503 65 320 4.0 6.0 0.00 0.00 0.00 80 1020.8
20260509081004 65 320 4.0 6.0 0.00 0.00 0.00 80 1020.8
20260509080503 65 320 4.0 6.0 0.00 0.00 0.00 80 1020.8
20260509080004 65 320 4.0 6.0 0.00 0.00 0.00 80 1020.8
20260509075004 65 320 4.0 6.0 0.00 0.00 0.00 80 1020.8
20260509074004 65 320 4.0 6.0 0.00 0.00 0.00 80 1020.8
20260509073003 65 320 4.0 6.0 0.00 0.00 0.00 80 1020.8
20260509072503 65 320 4.0 6.0 0.00 0.00 0.00 80 1020.8
20260509072003 65 320 4.0 6.0 0.00 0.00 0.00 80 1020.8
20260509071504 65 320 4.0 6.0 0.00 0.00 0.00 80 1020.8
20260509071004 65 320 4.0 6.0 0.00 0.00 0.00 80 1020.8
20260509070504 65 320 4.0 6.0 0.00 0.00 0.00 80 1020.8
20260509070004 65 320 4.0 6.0 0.00 0.00 0.00 80 1020.8
20260509065503 65 320 4.0 6.0 0.00 0.00 0.00 80 1020.8
20260509065004 65 320 4.0 6.0 0.00 0.00 0.00 80 1020.8
20260509064008 65 320 4.0 6.0 0.00 0.00 0.00 80 1020.8
20260509063503 65 320 4.0 6.0 0.00 0.00 0.00 80 1020.8
20260509063003 65 320 4.0 6.0 0.00 0.00 0.00 80 1020.8
20260509062504 65 320 4.0 6.0 0.00 0.00 0.00 80 1020.8
20260509061504 65 320 4.0 6.0 0.00 0.00 0.00 80 1020.8
20260509061003 65 320 4.0 6.0 0.00 0.00 0.00 80 1020.8
20260509060503 65 320 4.0 6.0 0.00 0.00 0.00 80 1020.8
20260509060004 65 320 4.0 6.0 0.00 0.00 0.00 80 1020.8
20260509055504 65 320 4.0 6.0 0.00 0.00 0.00 80 1020.8
20260509055004 65 320 4.0 6.0 0.00 0.00 0.00 80 1020.8
20260509054504 65 320 4.0 6.0 0.00 0.00 0.00 80 1020.8
20260509053504 65 320 4.0 6.0 0.00 0.00 0.00 80 1020.8
20260509053003 65 320 4.0 6.0 0.00 0.00 0.00 80 1020.8
20260509052503 65 320 4.0 6.0 0.00 0.00 0.00 80 1020.8
20260509052004 65 320 4.0 6.0 0.00 0.00 0.00 80 1020.8
20260509051003 65 320 4.0 6.0 0.00 0.00 0.00 80 1020.8
20260509050503 65 320 4.0 6.0 0.00 0.00 0.00 80 1020.8
20260509050004 65 320 4.0 6.0 0.00 0.00 0.00 80 1020.8
20260509045503 65 320 4.0 6.0 0.00 0.00 0.00 80 1020.8
20260509045003 65 320 4.0 6.0 0.00 0.00 0.00 80 1020.8
20260509044503 65 320 4.0 6.0 0.00 0.00 0.00 80 1020.8
20260509044004 65 320 4.0 6.0 0.00 0.00 0.00 80 1020.8
20260509043503 65 320 4.0 6.0 0.00 0.00 0.00 80 1020.8
20260509043004 65 320 4.0 6.0 0.00 0.00 0.00 80 1020.8
20260509042504 65 320 4.0 6.0 0.00 0.00 0.00 80 1020.8
20260509042004 65 320 4.0 6.0 0.00 0.00 0.00 80 1020.8
20260509040503 65 320 4.0 6.0 0.00 0.00 0.00 80 1020.8
20260509040004 65 320 4.0 6.0 0.00 0.00 0.00 80 1020.8
20260509035503 65 320 4.0 6.0 0.00 0.00 0.00 80 1020.8
20260509035004 65 320 4.0 6.0 0.00 0.00 0.00 80 1020.8
20260509033504 65 320 4.0 6.0 0.00 0.00 0.00 80 1020.8
20260509033004 65 320 4.0 6.0 0.00 0.00 0.00 80 1020.8
20260509032504 65 320 4.0 6.0 0.00 0.00 0.00 80 1020.8
20260509032003 65 320 4.0 6.0 0.00 0.00 0.00 80 1020.8
20260509031508 65 320 4.0 6.0 0.00 0.00 0.00 80 1020.8
20260509031008 65 320 4.0 6.0 0.00 0.00 0.00 80 1020.8
20260509030504 65 320 4.0 6.0 0.00 0.00 0.00 80 1020.8
20260509030003 65 320 4.0 6.0 0.00 0.00 0.00 80 1020.8
20260509025503 65 320 4.0 6.0 0.00 0.00 0.00 80 1020.8
20260509025003 65 320 4.0 6.0 0.00 0.00 0.00 80 1020.8
20260509024503 65 320 4.0 6.0 0.00 0.00 0.00 80 1020.8
20260509023503 65 320 4.0 6.0 0.00 0.00 0.00 80 1020.8
20260509023004 65 320 4.0 6.0 0.00 0.00 0.00 80 1020.8
20260509022503 65 320 4.0 6.0 0.00 0.00 0.00 80 1020.8
20260509022003 65 320 4.0 6.0 0.00 0.00 0.00 80 1020.8
20260509021504 65 320 4.0 6.0 0.00 0.00 0.00 80 1020.8
20260509020503 65 320 4.0 6.0 0.00 0.00 0.00 80 1020.8
20260509020003 65 320 4.0 6.0 0.00 0.00 0.00 80 1020.8
20260509015003 65 320 4.0 6.0 0.00 0.00 0.00 80 1020.8
20260509014503 65 320 4.0 6.0 0.00 0.00 0.00 80 1020.8
20260509014004 65 320 4.0 6.0 0.00 0.00 0.00 80 1020.8
20260509013004 65 320 4.0 6.0 0.00 0.00 0.00 80 1020.8
20260509012504 65 320 4.0 6.0 0.00 0.00 0.00 80 1020.8
20260509012003 65 320 4.0 6.0 0.00 0.00 0.00 80 1020.8
20260509011503 65 320 4.0 6.0 0.00 0.00 0.00 80 1020.8
20260509011003 65 320 4.0 6.0 0.00 0.00 0.00 80 1020.8
20260509010503 65 320 4.0 6.0 0.00 0.00 0.00 80 1020.8
20260509010004 65 320 4.0 6.0 0.00 0.00 0.00 80 1020.8
20260509005503 65 320 4.0 6.0 0.00 0.00 0.00 80 1020.8
20260509005004 65 320 4.0 6.0 0.00 0.00 0.00 80 1020.8
20260509004504 65 320 4.0 6.0 0.00 0.00 0.00 80 1020.8
20260509004004 65 320 4.0 6.0 0.00 0.00 0.00 80 1020.8
20260509003504 65 320 4.0 6.0 0.00 0.00 0.00 80 1020.8
20260509003004 65 320 4.0 6.0 0.00 0.00 0.00 80 1020.8
20260509002503 65 320 4.0 6.0 0.00 0.00 0.00 80 1020.8
20260509002004 65 320 4.0 6.0 0.00 0.00 0.00 80 1020.8
20260509001503 65 320 4.0 6.0 0.00 0.00 0.00 80 1020.8
20260509001003 65 320 4.0 6.0 0.00 0.00 0.00 80 1020.8
20260509000503 65 320 4.0 6.0 0.00 0.00 0.00 80 1020.8
20260509000004 65 320 4.0 6.0 0.00 0.00 0.00 80 1020.8
20260508235503 65 320 4.0 6.0 0.00 0.00 0.00 80 1020.8
20260508234504 65 320 4.0 6.0 0.00 0.00 0.00 80 1020.8
20260508234004 65 320 4.0 6.0 0.00 0.00 0.00 80 1020.8
20260508233503 65 320 4.0 6.0 0.00 0.00 0.00 80 1020.8
20260508232504 65 320 4.0 6.0 0.00 0.00 0.00 80 1020.8
20260508232003 65 320 4.0 6.0 0.00 0.00 0.00 80 1020.8
20260508231003 65 320 4.0 6.0 0.00 0.00 0.00 80 1020.8
20260508230503 65 320 4.0 6.0 0.00 0.00 0.00 80 1020.8
20260508225504 65 320 4.0 6.0 0.00 0.00 0.00 80 1020.8
20260508225003 65 320 4.0 6.0 0.00 0.00 0.00 80 1020.8